Time,TemperatureF,DewpointF,PressureIn,WindDirection,WindDirectionDegrees,WindSpeedMPH,WindSpeedGustMPH,Humidity,HourlyPrecipIn,Conditions,Clouds,dailyrainin,SoftwareType,DateUTC
2013-01-22 00:01:00,18.1,-10.8,30.18,NE,50,3.0,6.7,26,0.00,,,-99.99,FreeWX 2.04,2013-01-22 05:01:00,
2013-01-22 00:11:00,18.0,-11.0,30.18,ESE,114,2.0,6.7,26,0.00,,,-99.99,FreeWX 2.04,2013-01-22 05:11:00,
2013-01-22 00:21:00,17.8,-11.2,30.18,ESE,105,1.0,5.4,26,0.00,,,-99.99,FreeWX 2.04,2013-01-22 05:21:00,
2013-01-22 00:31:00,17.6,-11.4,30.18,ENE,71,2.0,6.7,26,0.00,,,-99.99,FreeWX 2.04,2013-01-22 05:31:00,
2013-01-22 00:41:00,17.6,-11.4,30.18,NE,34,3.0,7.8,26,0.00,,,-99.99,FreeWX 2.04,2013-01-22 05:41:00,
2013-01-22 00:51:00,17.6,-11.4,30.18,East,87,3.0,7.4,26,0.00,,,-99.99,FreeWX 2.04,2013-01-22 05:51:00,
2013-01-22 01:01:00,17.8,-11.2,30.18,ESE,110,3.0,7.8,26,0.00,,,-99.99,FreeWX 2.04,2013-01-22 06:01:00,
2013-01-22 01:11:00,17.6,-11.4,30.18,NE,53,3.0,6.7,26,0.00,,,-99.99,FreeWX 2.04,2013-01-22 06:11:00,
2013-01-22 01:21:00,17.6,-11.4,30.18,ENE,67,2.0,6.7,26,0.00,,,-99.99,FreeWX 2.04,2013-01-22 06:21:00,
2013-01-22 01:31:00,17.2,-11.7,30.18,ENE,72,4.0,7.8,26,0.00,,,-99.99,FreeWX 2.04,2013-01-22 06:31:00,
2013-01-22 01:41:00,16.5,-12.3,30.18,East,82,2.0,6.7,26,0.00,,,-99.99,FreeWX 2.04,2013-01-22 06:41:00,
2013-01-22 01:51:00,16.3,-12.5,30.21,NE,53,2.0,6.7,26,0.00,,,-99.99,FreeWX 2.04,2013-01-22 06:51:00,
2013-01-22 02:01:00,16.0,-12.8,30.21,ENE,78,2.0,5.4,26,0.00,,,-99.99,FreeWX 2.04,2013-01-22 07:01:00,
2013-01-22 02:11:00,15.6,-13.2,30.21,ESE,102,3.0,7.4,26,0.00,,,-99.99,FreeWX 2.04,2013-01-22 07:11:00,
2013-01-22 02:21:00,15.4,-13.2,30.21,ENE,75,3.0,6.9,26,0.00,,,-99.99,FreeWX 2.04,2013-01-22 07:21:00,
2013-01-22 02:31:00,15.3,-13.4,30.21,ENE,72,3.0,6.3,26,0.00,,,-99.99,FreeWX 2.04,2013-01-22 07:31:00,
2013-01-22 02:41:00,15.1,-13.5,30.21,ENE,63,3.0,6.3,26,0.00,,,-99.99,FreeWX 2.04,2013-01-22 07:41:00,
2013-01-22 02:51:00,14.9,-13.0,30.21,NNE,26,2.0,5.4,27,0.00,,,-99.99,FreeWX 2.04,2013-01-22 07:51:00,
2013-01-22 03:01:00,14.7,-13.2,30.21,NNE,26,2.0,6.7,27,0.00,,,-99.99,FreeWX 2.04,2013-01-22 08:01:00,
2013-01-22 03:11:00,14.4,-13.4,30.21,ENE,70,2.0,6.7,27,0.00,,,-99.99,FreeWX 2.04,2013-01-22 08:11:00,
2013-01-22 03:21:00,14.2,-13.5,30.21,East,80,2.0,5.8,27,0.00,,,-99.99,FreeWX 2.04,2013-01-22 08:21:00,
2013-01-22 03:31:00,14.2,-13.5,30.21,ENE,67,1.0,5.4,27,0.00,,,-99.99,FreeWX 2.04,2013-01-22 08:31:00,
2013-01-22 03:41:00,14.0,-13.7,30.21,NE,42,1.0,5.8,27,0.00,,,-99.99,FreeWX 2.04,2013-01-22 08:41:00,
2013-01-22 03:51:00,13.6,-99.9,30.21,East,79,3.0,6.9,-999,0.00,,,-99.99,FreeWX 2.04,2013-01-22 08:51:00,
2013-01-22 04:01:00,13.5,-99.9,30.21,NE,44,2.0,6.9,-999,0.00,,,-99.99,FreeWX 2.04,2013-01-22 09:01:00,
2013-01-22 04:11:00,13.5,-99.9,30.21,North,11,1.0,4.0,-999,0.00,,,-99.99,FreeWX 2.04,2013-01-22 09:11:00,
2013-01-22 04:21:00,13.3,-99.9,30.21,North,-999,0.0,4.0,-999,0.00,,,-99.99,FreeWX 2.04,2013-01-22 09:21:00,
2013-01-22 04:31:00,13.1,-99.9,30.24,North,-999,0.0,5.8,-999,0.00,,,-99.99,FreeWX 2.04,2013-01-22 09:31:00,
2013-01-22 04:41:00,13.1,-99.9,30.24,NE,39,2.0,6.9,-999,0.00,,,-99.99,FreeWX 2.04,2013-01-22 09:41:00,
2013-01-22 04:51:00,12.7,-99.9,30.24,ENE,74,2.0,4.9,-999,0.00,,,-99.99,FreeWX 2.04,2013-01-22 09:51:00,
2013-01-22 05:01:00,12.7,-99.9,30.24,NE,39,2.0,5.4,-999,0.00,,,-99.99,FreeWX 2.04,2013-01-22 10:01:00,
2013-01-22 05:11:00,12.7,-99.9,30.24,NNE,20,2.0,5.8,-999,0.00,,,-99.99,FreeWX 2.04,2013-01-22 10:11:00,
2013-01-22 05:21:00,12.7,-99.9,30.24,ENE,65,2.0,4.9,-999,0.00,,,-99.99,FreeWX 2.04,2013-01-22 10:21:00,
2013-01-22 05:31:00,12.7,-99.9,30.24,ESE,109,1.0,4.0,-999,0.00,,,-99.99,FreeWX 2.04,2013-01-22 10:31:00,
2013-01-22 05:41:00,12.7,-99.9,30.24,East,100,1.0,4.9,-999,0.00,,,-99.99,FreeWX 2.04,2013-01-22 10:41:00,
2013-01-22 05:51:00,12.7,-99.9,30.24,North,-999,0.0,4.0,-999,0.00,,,-99.99,FreeWX 2.04,2013-01-22 10:51:00,
2013-01-22 06:01:00,12.7,-99.9,30.24,North,-999,0.0,2.7,-999,0.00,,,-99.99,FreeWX 2.04,2013-01-22 11:01:00,
2013-01-22 06:11:00,12.9,-99.9,30.24,North,-999,0.0,5.4,-999,0.00,,,-99.99,FreeWX 2.04,2013-01-22 11:11:00,
2013-01-22 06:21:00,12.7,-99.9,30.24,North,-999,0.0,4.5,-999,0.00,,,-99.99,FreeWX 2.04,2013-01-22 11:21:00,
2013-01-22 06:42:00,12.7,-99.9,30.24,North,-999,0.0,3.6,-999,0.00,,,-99.99,FreeWX 2.04,2013-01-22 11:42:00,
2013-01-22 06:52:00,12.7,-99.9,30.27,North,-999,0.0,3.6,-999,0.00,,,-99.99,FreeWX 2.04,2013-01-22 11:52:00,
2013-01-22 07:02:00,12.7,-99.9,30.27,North,-999,0.0,4.0,-999,0.00,,,-99.99,FreeWX 2.04,2013-01-22 12:02:00,
2013-01-22 07:12:00,12.9,-99.9,30.27,North,-999,0.0,3.1,-999,0.00,,,-99.99,FreeWX 2.04,2013-01-22 12:12:00,
2013-01-22 07:22:00,12.7,-99.9,30.27,NNW,347,1.0,4.0,-999,0.00,,,-99.99,FreeWX 2.04,2013-01-22 12:22:00,
2013-01-22 07:32:00,12.7,-99.9,30.27,North,-999,0.0,5.8,-999,0.00,,,-99.99,FreeWX 2.04,2013-01-22 12:32:00,
2013-01-22 07:42:00,12.7,-99.9,30.27,NE,54,2.0,6.3,-999,0.00,,,-99.99,FreeWX 2.04,2013-01-22 12:42:00,
2013-01-22 07:52:00,13.1,-99.9,30.30,North,9,1.0,4.5,-999,0.00,,,-99.99,FreeWX 2.04,2013-01-22 12:52:00,
2013-01-22 08:02:00,13.1,-99.9,30.30,East,91,1.0,5.4,-999,0.00,,,-99.99,FreeWX 2.04,2013-01-22 13:02:00,
2013-01-22 08:12:00,12.7,-99.9,30.30,North,-999,0.0,4.5,-999,0.00,,,-99.99,FreeWX 2.04,2013-01-22 13:12:00,
2013-01-22 08:22:00,12.4,-99.9,30.30,ENE,70,2.0,5.4,-999,0.00,,,-99.99,FreeWX 2.04,2013-01-22 13:22:00,
2013-01-22 08:32:00,12.4,-99.9,30.30,ENE,71,3.0,8.3,-999,0.00,,,-99.99,FreeWX 2.04,2013-01-22 13:32:00,
2013-01-22 08:42:00,13.1,-99.9,30.30,ESE,118,2.0,5.8,-999,0.00,,,-99.99,FreeWX 2.04,2013-01-22 13:42:00,
2013-01-22 08:52:00,14.2,-13.5,30.30,NE,51,4.0,8.7,27,0.00,,,-99.99,FreeWX 2.04,2013-01-22 13:52:00,
2013-01-22 09:02:00,14.5,-13.4,30.30,NE,46,3.0,6.7,27,0.00,,,-99.99,FreeWX 2.04,2013-01-22 14:02:00,
2013-01-22 09:12:00,15.6,-13.2,30.30,ENE,64,4.0,6.9,26,0.00,,,-99.99,FreeWX 2.04,2013-01-22 14:12:00,
2013-01-22 09:22:00,15.8,-13.0,30.33,NNE,32,3.0,7.4,26,0.00,,,-99.99,FreeWX 2.04,2013-01-22 14:22:00,
2013-01-22 09:32:00,16.0,-12.8,30.33,NE,48,4.0,8.7,26,0.00,,,-99.99,FreeWX 2.04,2013-01-22 14:32:00,
2013-01-22 09:45:00,16.7,-12.1,30.33,ENE,77,4.0,11.2,26,0.00,,,-99.99,FreeWX 2.04,2013-01-22 14:45:00,
2013-01-22 09:55:00,17.2,-11.7,30.33,East,97,4.0,7.8,26,0.00,,,-99.99,FreeWX 2.04,2013-01-22 14:55:00,
2013-01-22 10:05:00,17.4,-11.6,30.33,ESE,108,4.0,7.4,26,0.00,,,-99.99,FreeWX 2.04,2013-01-22 15:05:00,
2013-01-22 10:15:00,17.6,-11.4,30.33,ESE,117,4.0,7.8,26,0.00,,,-99.99,FreeWX 2.04,2013-01-22 15:15:00,
2013-01-22 10:25:00,18.1,-10.8,30.33,East,85,4.0,7.8,26,0.00,,,-99.99,FreeWX 2.04,2013-01-22 15:25:00,
2013-01-22 10:35:00,19.6,-10.5,30.33,East,99,3.0,7.8,25,0.00,,,-99.99,FreeWX 2.04,2013-01-22 15:35:00,
2013-01-22 10:45:00,19.9,-10.1,30.33,ESE,103,4.0,6.9,25,0.00,,,-99.99,FreeWX 2.04,2013-01-22 15:45:00,
2013-01-22 10:55:00,20.5,-9.8,30.33,NE,41,3.0,6.9,25,0.00,,,-99.99,FreeWX 2.04,2013-01-22 15:55:00,
2013-01-22 11:05:00,21.4,-8.9,30.33,NE,56,4.0,9.6,25,0.00,,,-99.99,FreeWX 2.04,2013-01-22 16:05:00,
2013-01-22 11:15:00,22.1,-8.3,30.33,North,353,4.0,7.4,25,0.00,,,-99.99,FreeWX 2.04,2013-01-22 16:15:00,
2013-01-22 11:25:00,22.3,-8.1,30.33,NE,46,3.0,8.3,25,0.00,,,-99.99,FreeWX 2.04,2013-01-22 16:25:00,
2013-01-22 11:35:00,23.2,-7.4,30.33,NNE,23,4.0,7.8,25,0.00,,,-99.99,FreeWX 2.04,2013-01-22 16:35:00,
2013-01-22 11:45:00,23.0,-7.6,30.33,NNE,32,3.0,7.8,25,0.00,,,-99.99,FreeWX 2.04,2013-01-22 16:45:00,
2013-01-22 11:55:00,22.6,-7.8,30.33,NE,56,3.0,6.9,25,0.00,,,-99.99,FreeWX 2.04,2013-01-22 16:55:00,
2013-01-22 12:05:00,23.7,-6.9,30.33,NNE,15,5.0,9.2,25,0.00,,,-99.99,FreeWX 2.04,2013-01-22 17:05:00,
2013-01-22 12:15:00,23.4,-7.2,30.33,East,79,5.0,9.2,25,0.00,,,-99.99,FreeWX 2.04,2013-01-22 17:15:00,
2013-01-22 12:25:00,23.4,-7.2,30.33,ESE,111,5.0,8.7,25,0.00,,,-99.99,FreeWX 2.04,2013-01-22 17:25:00,
2013-01-22 12:35:00,24.1,-7.4,30.30,NE,39,5.0,11.6,24,0.00,,,-99.99,FreeWX 2.04,2013-01-22 17:35:00,
2013-01-22 12:54:00,24.6,-6.9,30.30,NE,40,5.0,9.2,24,0.00,,,-99.99,FreeWX 2.04,2013-01-22 17:54:00,
2013-01-22 13:04:00,23.9,-7.6,30.30,ESE,102,5.0,10.1,24,0.00,,,-99.99,FreeWX 2.04,2013-01-22 18:04:00,
2013-01-22 13:14:00,25.0,-6.7,30.30,NNE,27,5.0,8.3,24,0.00,,,-99.99,FreeWX 2.04,2013-01-22 18:14:00,
2013-01-22 13:24:00,25.0,-6.7,30.30,ESE,113,4.0,11.0,24,0.00,,,-99.99,FreeWX 2.04,2013-01-22 18:24:00,
2013-01-22 13:34:00,23.7,-6.9,30.27,East,101,5.0,9.2,25,0.00,,,-99.99,FreeWX 2.04,2013-01-22 18:34:00,
2013-01-22 13:44:00,25.2,-6.5,30.27,NE,48,4.0,9.2,24,0.00,,,-99.99,FreeWX 2.04,2013-01-22 18:44:00,
2013-01-22 13:54:00,24.6,-6.9,30.27,East,100,4.0,8.3,24,0.00,,,-99.99,FreeWX 2.04,2013-01-22 18:54:00,
2013-01-22 14:04:00,24.8,-6.9,30.27,East,81,5.0,10.1,24,0.00,,,-99.99,FreeWX 2.04,2013-01-22 19:04:00,
2013-01-22 14:14:00,23.9,-7.6,30.27,ESE,119,4.0,8.7,24,0.00,,,-99.99,FreeWX 2.04,2013-01-22 19:14:00,
2013-01-22 14:24:00,24.6,-6.9,30.27,ENE,71,4.0,11.0,24,0.00,,,-99.99,FreeWX 2.04,2013-01-22 19:24:00,
2013-01-22 14:34:00,25.2,-6.5,30.27,ENE,66,5.0,10.1,24,0.00,,,-99.99,FreeWX 2.04,2013-01-22 19:34:00,
2013-01-22 14:44:00,24.6,-6.9,30.27,ESE,120,4.0,8.7,24,0.00,,,-99.99,FreeWX 2.04,2013-01-22 19:44:00,
2013-01-22 14:54:00,24.6,-6.9,30.27,East,99,4.0,8.3,24,0.00,,,-99.99,FreeWX 2.04,2013-01-22 19:54:00,
2013-01-22 15:04:00,25.0,-6.7,30.27,East,90,3.0,6.7,24,0.00,,,-99.99,FreeWX 2.04,2013-01-22 20:04:00,
2013-01-22 15:14:00,24.6,-6.9,30.27,East,91,4.0,8.3,24,0.00,,,-99.99,FreeWX 2.04,2013-01-22 20:14:00,
2013-01-22 15:24:00,24.6,-6.9,30.27,NNE,20,4.0,9.6,24,0.00,,,-99.99,FreeWX 2.04,2013-01-22 20:24:00,
2013-01-22 15:34:00,24.6,-6.9,30.27,East,101,4.0,10.1,24,0.00,,,-99.99,FreeWX 2.04,2013-01-22 20:34:00,
2013-01-22 15:44:00,23.9,-7.6,30.27,East,96,4.0,8.7,24,0.00,,,-99.99,FreeWX 2.04,2013-01-22 20:44:00,
2013-01-22 15:54:00,23.7,-6.9,30.27,East,94,4.0,10.1,25,0.00,,,-99.99,FreeWX 2.04,2013-01-22 20:54:00,
2013-01-22 16:04:00,23.0,-7.6,30.27,ESE,115,4.0,8.7,25,0.00,,,-99.99,FreeWX 2.04,2013-01-22 21:04:00,
2013-01-22 16:14:00,22.8,-7.6,30.27,ENE,69,4.0,10.1,25,0.00,,,-99.99,FreeWX 2.04,2013-01-22 21:14:00,
2013-01-22 16:25:00,22.5,-8.0,30.27,East,84,5.0,11.2,25,0.00,,,-99.99,FreeWX 2.04,2013-01-22 21:25:00,
2013-01-22 16:35:00,22.1,-8.3,30.27,East,92,4.0,12.1,25,0.00,,,-99.99,FreeWX 2.04,2013-01-22 21:35:00,
2013-01-22 16:45:00,21.6,-8.7,30.27,East,79,3.0,6.7,25,0.00,,,-99.99,FreeWX 2.04,2013-01-22 21:45:00,
2013-01-22 17:00:00,21.0,-9.2,30.27,East,80,4.0,11.2,25,0.00,,,-99.99,FreeWX 2.04,2013-01-22 22:00:00,
2013-01-22 17:10:00,20.7,-9.6,30.27,East,88,3.0,5.8,25,0.00,,,-99.99,FreeWX 2.04,2013-01-22 22:10:00,
2013-01-22 17:20:00,20.3,-9.8,30.27,East,101,3.0,6.9,25,0.00,,,-99.99,FreeWX 2.04,2013-01-22 22:20:00,
2013-01-22 17:30:00,19.8,-10.3,30.27,ESE,103,3.0,6.9,25,0.00,,,-99.99,FreeWX 2.04,2013-01-22 22:30:00,
2013-01-22 17:40:00,19.6,-10.5,30.27,East,90,3.0,6.7,25,0.00,,,-99.99,FreeWX 2.04,2013-01-22 22:40:00,
2013-01-22 17:50:00,19.2,-10.8,30.27,ENE,75,3.0,5.8,25,0.00,,,-99.99,FreeWX 2.04,2013-01-22 22:50:00,
2013-01-22 18:00:00,19.0,-10.8,30.27,ENE,67,2.0,4.9,25,0.00,,,-99.99,FreeWX 2.04,2013-01-22 23:00:00,
2013-01-22 18:10:00,18.5,-11.4,30.27,East,85,3.0,6.9,25,0.00,,,-99.99,FreeWX 2.04,2013-01-22 23:10:00,
2013-01-22 18:20:00,18.5,-10.7,30.27,NE,35,2.0,5.8,26,0.00,,,-99.99,FreeWX 2.04,2013-01-22 23:20:00,
2013-01-22 18:30:00,18.3,-10.8,30.30,North,-999,0.0,2.7,26,0.00,,,-99.99,FreeWX 2.04,2013-01-22 23:30:00,
2013-01-22 18:40:00,18.1,-10.8,30.30,East,95,1.0,4.9,26,0.00,,,-99.99,FreeWX 2.04,2013-01-22 23:40:00,
2013-01-22 18:50:00,17.8,-11.2,30.30,North,-999,0.0,3.6,26,0.00,,,-99.99,FreeWX 2.04,2013-01-22 23:50:00,
2013-01-22 19:00:00,17.6,-11.4,30.27,North,-999,0.0,3.1,26,0.00,,,-99.99,FreeWX 2.04,2013-01-23 00:00:00,
2013-01-22 19:10:00,17.6,-11.4,30.27,North,-999,0.0,0.0,26,0.00,,,-99.99,FreeWX 2.04,2013-01-23 00:10:00,
2013-01-22 19:20:00,17.4,-11.6,30.27,North,-999,0.0,0.0,26,0.00,,,-99.99,FreeWX 2.04,2013-01-23 00:20:00,
2013-01-22 19:30:00,17.6,-11.4,30.30,North,-999,0.0,0.0,26,0.00,,,-99.99,FreeWX 2.04,2013-01-23 00:30:00,
2013-01-22 19:40:00,17.4,-11.6,30.30,North,-999,0.0,0.0,26,0.00,,,-99.99,FreeWX 2.04,2013-01-23 00:40:00,
2013-01-22 19:50:00,17.4,-11.6,30.30,North,-999,0.0,0.0,26,0.00,,,-99.99,FreeWX 2.04,2013-01-23 00:50:00,
2013-01-22 20:00:00,17.4,-11.6,30.30,North,-999,0.0,4.0,26,0.00,,,-99.99,FreeWX 2.04,2013-01-23 01:00:00,
2013-01-22 20:10:00,17.4,-11.6,30.30,North,-999,0.0,0.0,26,0.00,,,-99.99,FreeWX 2.04,2013-01-23 01:10:00,
2013-01-22 20:20:00,17.2,-11.7,30.30,North,-999,0.0,3.1,26,0.00,,,-99.99,FreeWX 2.04,2013-01-23 01:20:00,
2013-01-22 20:30:00,17.2,-11.7,30.30,North,-999,0.0,4.5,26,0.00,,,-99.99,FreeWX 2.04,2013-01-23 01:30:00,
2013-01-22 20:40:00,17.2,-11.7,30.30,North,-999,0.0,2.7,26,0.00,,,-99.99,FreeWX 2.04,2013-01-23 01:40:00,
2013-01-22 20:50:00,17.1,-11.9,30.30,North,-999,0.0,3.6,26,0.00,,,-99.99,FreeWX 2.04,2013-01-23 01:50:00,
2013-01-22 21:00:00,17.1,-11.9,30.30,North,-999,0.0,0.0,26,0.00,,,-99.99,FreeWX 2.04,2013-01-23 02:00:00,
2013-01-22 21:10:00,16.7,-12.1,30.30,North,-999,0.0,0.0,26,0.00,,,-99.99,FreeWX 2.04,2013-01-23 02:10:00,
2013-01-22 21:21:00,16.7,-12.1,30.30,North,-999,0.0,0.0,26,0.00,,,-99.99,FreeWX 2.04,2013-01-23 02:21:00,
2013-01-22 21:31:00,16.5,-12.3,30.30,North,-999,0.0,0.0,26,0.00,,,-99.99,FreeWX 2.04,2013-01-23 02:31:00,
2013-01-22 21:41:00,16.2,-12.6,30.30,North,-999,0.0,0.0,26,0.00,,,-99.99,FreeWX 2.04,2013-01-23 02:41:00,
2013-01-22 21:51:00,16.0,-12.8,30.27,North,-999,0.0,0.0,26,0.00,,,-99.99,FreeWX 2.04,2013-01-23 02:51:00,
2013-01-22 22:01:00,16.2,-12.6,30.30,North,-999,0.0,0.0,26,0.00,,,-99.99,FreeWX 2.04,2013-01-23 03:01:00,
2013-01-22 22:11:00,16.5,-12.3,30.30,North,-999,0.0,0.0,26,0.00,,,-99.99,FreeWX 2.04,2013-01-23 03:11:00,
2013-01-22 22:21:00,16.5,-12.3,30.30,North,-999,0.0,0.0,26,0.00,,,-99.99,FreeWX 2.04,2013-01-23 03:21:00,
2013-01-22 22:31:00,16.7,-12.1,30.30,North,-999,0.0,0.0,26,0.00,,,-99.99,FreeWX 2.04,2013-01-23 03:31:00,
2013-01-22 22:41:00,16.9,-11.9,30.30,North,-999,0.0,0.0,26,0.00,,,-99.99,FreeWX 2.04,2013-01-23 03:41:00,
2013-01-22 22:51:00,17.1,-11.9,30.30,North,-999,0.0,0.0,26,0.00,,,-99.99,FreeWX 2.04,2013-01-23 03:51:00,
2013-01-22 23:01:00,17.2,-11.7,30.30,North,-999,0.0,0.0,26,0.00,,,-99.99,FreeWX 2.04,2013-01-23 04:01:00,
2013-01-22 23:11:00,17.6,-11.4,30.30,North,-999,0.0,3.6,26,0.00,,,-99.99,FreeWX 2.04,2013-01-23 04:11:00,
2013-01-22 23:21:00,17.6,-11.4,30.30,North,-999,0.0,3.6,26,0.00,,,-99.99,FreeWX 2.04,2013-01-23 04:21:00,
2013-01-22 23:31:00,18.0,-11.0,30.30,North,-999,0.0,4.5,26,0.00,,,-99.99,FreeWX 2.04,2013-01-23 04:31:00,
2013-01-22 23:41:00,18.0,-11.0,30.30,North,355,1.0,4.0,26,0.00,,,-99.99,FreeWX 2.04,2013-01-23 04:41:00,
2013-01-22 23:51:00,18.1,-10.8,30.30,North,-999,0.0,4.0,26,0.00,,,-99.99,FreeWX 2.04,2013-01-23 04:51:00,